User: anonymous   Login
Location: Unspecified
(0.0000°N, 0.0000°E)
Time: 04:46:45
(UTC+00:00)
Language:

SR - Orbit

View from above orbital plane
View from above orbital plane
View from above satellite
View from above satellite

Ground track
Ground track

The orbit data is extracted from the following two-line orbital elements,

1    46U 60007B   18020.17094703 +.00000047 +00000-0 +32582-4 0  9990
2    46 066.6900 262.0645 0203971 065.6505 296.5747 14.49112570011706
Epoch (UTC): 20 January 2018 04:06:09
Eccentricity: 0.0203971
inclination: 66.6900°
perigee height: 583 km
apogee height: 873 km
right ascension of ascending node: 262.0645°
argument of perigee: 65.6505°
revolutions per day: 14.49112570
mean anomaly at epoch: 296.5747°
orbit number at epoch: 1170

The dashed part of the orbit path shows where the satellite is in the earth's shadow,  

DLR